Content
SEND FEEDBACK

Daily
Averages
Monthly
Summary
Uruguay

BALNEARIO CARRASCO, URUGUAY


Home > South America > Uruguay
Elevation: 105 feet     Latitude: 34 50S     Longitude: 056 00W

WEATHER
 
SELECT A DAY
Number of Records: 171,534;   Date Range: 6/30/96 - 9/18/14
 
SHARE

PRINT THIS DATA

[ ← Previous Day ]
WEATHER ALMANAC - JANUARY 31, 2013
[ Next Day → ]
[ °C ]   °F
Weather ElementAverageHighLow
Temperature77.8 °F82.4 °F (12:00 pm)73.4 °F (5:00 am)
Dewpoint72.1 °F75.2 °F (10:00 pm)69.8 °F (1:00 am)
Humidity82.6 %100 % (5:00 am)66 % (12:00 pm)
Barometer29.80 in29.83 in (1:00 am)29.74 in (9:00 pm)
Wind Speed5.7 mph12.7 mph (10:00 pm)
Weather ElementAverage
Visibility5.9 mi
Wind DirectionE (90.4 °)

Weather ElementTotal
Precipitation---
Cooling Degree Days12.9 (Base 65)
Growing Degree Days27.9 (Base 50)
Averaged from 28 records on January 31, 2013
WEATHER CONDITIONS BREAKOUT
WIND DIRECTION BREAKOUT
WEATHER BY HOUR - JANUARY 31, 2013
[ °C ]   °F
Local TimeTemperatureDewpointHumidityBarometerVisibilityWind DirectionWind SpeedGust SpeedPrecipitationEventsConditions
1:00 AM77.0 °F69.8 °F78 %29.83 inCalmClear
2:00 AM75.2 °F69.8 °F83 %29.83 inCalmClear
3:00 AM75.2 °F71.6 °F89 %29.83 inCalmClear
4:00 AM74.0 °F72.0 °F91 %29.82 in6.0 miCalmScattered Clouds
4:00 AM75.2 °F71.6 °F89 %29.80 in6.2 miCalmPartly Cloudy
5:00 AM73.4 °F73.4 °F100 %29.80 in6.2 miCalmPartly Cloudy
6:00 AM73.4 °F73.4 °F100 %29.80 in6.2 miCalmPartly Cloudy
7:00 AM75.2 °F73.4 °F94 %29.80 in1.9 miCalmFogPatches of Fog
8:00 AM75.2 °F73.4 °F94 %29.80 in6.2 miESE (120°)5.8 mphMostly Cloudy
9:00 AM75.2 °F71.6 °F89 %29.83 in6.2 miSE (130°)8.1 mphMostly Cloudy
10:00 AM78.0 °F72.0 °F78 %29.83 in6.0 miSE (130°)6.9 mphMostly Cloudy
10:00 AM77.0 °F71.6 °F83 %29.83 in6.2 miSE (130°)6.9 mphMostly Cloudy
11:00 AM78.8 °F71.6 °F78 %29.83 in6.2 miEast (90°)4.6 mphMostly Cloudy
12:00 PM82.4 °F69.8 °F66 %29.83 inESE (110°)4.6 mphClear
1:00 PM82.4 °F69.8 °F66 %29.83 inSSE (150°)4.6 mphClear
2:00 PM82.4 °F71.6 °F70 %29.83 inSE (140°)4.6 mphClear
3:00 PM82.4 °F73.4 °F74 %29.80 in6.2 miSSE (160°)11.5 mphMostly Cloudy
4:00 PM81.0 °F72.0 °F69 %29.81 in6.0 miSSE (150°)8.1 mphScattered Clouds
4:00 PM80.6 °F73.4 °F79 %29.80 in6.2 miSSE (150°)8.1 mphMostly Cloudy
5:00 PM80.6 °F73.4 °F79 %29.77 inSSE (160°)10.4 mphClear
6:00 PM80.6 °F73.4 °F79 %29.77 inSE (140°)8.1 mphClear
7:00 PM80.6 °F71.6 °F74 %29.77 inSSE (160°)6.9 mphClear
8:00 PM78.8 °F71.6 °F78 %29.77 inESE (120°)10.4 mphClear
9:00 PM77.0 °F71.6 °F83 %29.74 inESE (110°)9.2 mphClear
10:00 PM77.0 °F74.0 °F89 %29.76 in6.0 miEast (80°)12.7 mphScattered Clouds
10:00 PM77.0 °F75.2 °F94 %29.74 in6.2 miEast (80°)12.7 mphMostly Cloudy
11:00 PM77.0 °F71.6 °F83 %29.77 in6.2 miEast (80°)4.6 mphMostly Cloudy
11:35 PM77.0 °F71.6 °F83 %29.77 in6.2 miNE (50°)11.5 mphRainRain
Hourly data recorded from SUMU, located miles away from Balneario Carrasco, Uruguay







STORIES FROM OUR PARTNERS